Regional Weather Roundup
Issued by NWS Green Bay, WI

Home | Current Version | Previous Version | Text Only | Print | Product List | Glossary On
Versions: 1 2 3 4 5 6 7 8 9 10 11 12 13 14 15 16 17 18 19 20 21 22 23 24 25 26 27 28 29 30 31 32 33 34 35 36 37 38 39 40 41 42 43 44 45 46 47 48 49 50
000
ASUS43 KGRB 101311
RWRGRB

NORTH-CENTRAL AND NORTHEAST WISCONSIN REGIONAL WEATHER ROUNDUP
NATIONAL WEATHER SERVICE GREEN BAY WI
700 AM CST SUN DEC 10 2017

WIZ005-009-010>012-018-019-101400-
NORTH CENTRAL WISCONSIN

CITY           SKY/WX    TMP DP  RH WIND       PRES   REMARKS
IRONWOOD       FLURRIES  18  16  92 W7        29.82R WCI   9
MANITOWISH WTR CLOUDY    16  16 100 W5        29.79R WCI   8
ARBOR VITAE    CLOUDY    18  16  91 NW3       29.79R
EAGLE RIVER    CLOUDY    14  11  88 NW6       29.77R WCI   5
LAND O LAKES   CLOUDY    16  14  93 NW5       29.78R FOG     WCI   9
RHINELANDER    CLOUDY    15  14  95 W6        29.78R WCI   6
PHILLIPS       CLOUDY    15  15  98 CALM      29.80R
ANTIGO         CLOUDY    14  13  95 W7        29.78S WCI   4
TOMAHAWK       CLOUDY    16  14  93 W5        29.80S WCI   9
MERRILL        CLOUDY    16  15  95 CALM      29.81S
$$

WIZ013-073-101400-
NORTHEAST WISCONSIN

CITY           SKY/WX    TMP DP  RH WIND       PRES   REMARKS
IRON MOUNTAIN  CLOUDY    16  11  80 NW5       29.77R WCI   9
MARINETTE      PTCLDY    14  11  87 SW3       29.85S
OCONTO         CLOUDY    15  11  83 CALM      29.85F
$$

WIZ017-030-035>037-045-101400-
CENTRAL WISCONSIN

CITY           SKY/WX    TMP DP  RH WIND       PRES   REMARKS
MEDFORD        CLOUDY    16  15  93 W5        29.80R WCI   9
WAUSAU         CLOUDY    17  15  92 NW6       29.81R WCI   9
MOSINEE        CLOUDY    18  16  93 W3        29.82R
MARSHFIELD     CLOUDY    19  15  84 NW5       29.81R
WISC RAPIDS    CLOUDY    20  15  81 W5        29.84R
STEVENS POINT  CLOUDY    17  15  90 W3        29.83R
WAUPACA        CLOUDY    21  15  76 SW3       29.84S
SHAWANO        CLOUDY    19  14  78 CALM      29.84S
CLINTONVILLE   CLOUDY    18  12  79 W5        29.84S
WAUTOMA        CLOUDY    20  15  81 SW3       29.84S
$$

WIZ038-039-048-051-101400-
FOX VALLEY

CITY           SKY/WX    TMP DP  RH WIND       PRES   REMARKS
NWS GREEN BAY  CLOUDY    19  14  81 CALM      29.85S
APPLETON       MOCLDY    19  12  73 SW6       29.82R
OSHKOSH        CLOUDY    21  15  78 SW8       29.84R
FOND DU LAC    CLOUDY    22  14  71 SW7       29.85R
$$

WIZ022-050-052-101400-
EAST CENTRAL WISCONSIN

CITY           SKY/WX    TMP DP  RH WIND       PRES   REMARKS
EPHRAIM        CLOUDY    19  14  82 W8        29.81F WCI   8
WASHINGTON ISL FLURRIES  20  15  79 W9G16     29.81S WCI  10
STURGEON BAY   CLOUDY    17  13  84 SW6       29.85R WCI   9
MANITOWOC      MOCLDY    17  13  84 CALM      29.87R
SHEBOYGAN      CLOUDY    21  15  78 SW13      29.85S WCI   9
$$

LMZ563-521-522-541>543-101400-
LAKESHORE

STATION/POSITION TIME  TEMP    WIND        PRES    VSBY  WAVE
                       AIR SEA DIR/SP/G                  HT/PER
                 (UTC) (F)     (DEG/KT/KT) (MB)    (MI)  (FT/S)
SHEBOYGAN LKSHOR 1300   22     250/  8/ 10 1012.2R
KEWAUNEE LKSHORE 1248   19     230/  2/  4 1010.6R
NORTHPORT PIER   1240   21     270/  8/ 12 1009.8F
MENOMINEE LKSHOR 1248   17     210/  5/  7 1010.3F
$$




USA.gov is the U.S. government's official web portal to all federal, state and local government web resources and services.